Regional Weather Roundup
Issued by NWS

Home | Current Version | Previous Version | Text Only | Print | Product List | Glossary Off
Versions: 1 2 3 4 5 6 7 8 9 10 11 12 13 14 15 16 17 18 19 20 21 22 23 24 25 26 27 28 29 30 31 32 33 34 35 36 37 38 39 40 41 42 43 44 45 46 47 48 49 50

403
ASUS43 KLSX 170707
RWRMO

WEATHER SUMMARY FOR MISSOURI
NATIONAL WEATHER SERVICE SPRINGFIELD MO
100 AM CST WED JAN 17 2018

NOTE: "FAIR" INDICATES FEW OR NO CLOUDS BELOW 12,000 FEET WITH NO
       SIGNIFICANT WEATHER AND/OR OBSTRUCTIONS TO VISIBILITY.
       CURRENT SKY AND/OR WEATHER CONDITIONS ARE NOT AVAILABLE FOR
       CHILLICOTHE AND FARMINGTON.

MOZ001>031-035>038-043-044-053-054-170800-
...NORTHERN AND WESTERN MISSOURI...

CITY           SKY/WX    TMP DP  RH WIND       PRES   REMARKS
KANSAS CTY INT CLOUDY     0  -4  83 SW7       30.67F WCI -13
KANSAS C DTWN  CLOUDY     7   0  73 CALM      30.70F
LEE`S SUMMIT   CLOUDY     2  -1  88 SW3       30.68F
ST JOSEPH        N/A    N/A N/A N/A MISG      30.69F
CHILLICOTHE      N/A     -1  -5  82 CALM      30.70F
KIRKSVILLE     CLOUDY    -2  -3  96 W5        30.65S WCI -12

$$
MOZ066>068-077>081-088>096-101>105-170800-
...SOUTHWEST MISSOURI...

CITY           SKY/WX    TMP DP  RH WIND       PRES   REMARKS
SPRINGFIELD    CLOUDY    -4  -9  79 CALM      30.65F
JOPLIN         PTCLDY    -2  -4  91 S3        30.72F
BRANSON        CLOUDY     0  -2  92 SW3       30.67F

$$
MOZ032>034-039>042-045>050-055>058-069>072-170800-
...CENTRAL MISSOURI...

CITY           SKY/WX    TMP DP  RH WIND       PRES   REMARKS
COLUMBIA       CLOUDY     2  -2  83 W5        30.68S WCI  -8
JEFFERSON CITY CLOUDY     1  -4  79 NW3       30.73F
ROLLA          CLEAR      2  -2  83 W6        30.65F WCI  -9
SEDALIA        CLOUDY     1  -1  91 SW3       30.70S
WHITEMAN AFB   CLEAR     -3  -8  79 SW3       30.65F
WARRENSBURG    CLOUDY    -4  -8  84 CALM      30.72S
OSAGE BEACH    CLOUDY    -4 -11  72 W3        30.70F

$$
MOZ051-052-059>065-170800-
...EAST CENTRAL MISSOURI...

CITY           SKY/WX    TMP DP  RH WIND       PRES   REMARKS
ST LOUIS INTL  PTCLDY     8   1  73 W8        30.68S WCI  -4
SPIRIT OF STL  PTCLDY     6   1  80 W7        30.69F WCI  -6
ST CHARLES     CLEAR      6   0  76 W8        30.69F WCI  -7

$$
MOZ072>076-082>087-097>100-106>115-170800-
...SOUTH CENTRAL AND SOUTHEAST MISSOURI...

CITY           SKY/WX    TMP DP  RH WIND       PRES   REMARKS
CAPE GIRARDEAU CLOUDY    12   3  67 N9        30.69S WCI   0
FARMINGTON     CLOUDY     8   3  80 NW7       30.65F WCI  -3
POPLAR BLUFF   FAIR     N/A N/A N/A NW7       30.70S
WEST PLAINS    CLEAR      2  -3  80 N5        30.64F WCI  -8

$$



USA.gov is the U.S. government's official web portal to all federal, state and local government web resources and services.